User: anonymous   Login
Location: Unspecified
(0.0000°N, 0.0000°E)
Time: 07:48:13
(UTC+00:00)
Language:

STARLINK-11680 [DTC] - Orbit

View from above orbital plane
View from above orbital plane
View from above satellite
View from above satellite

Ground track
Ground track

The orbit is defined by the following mean orbital elements,

1 63554U          26145.16032775 +.00000000 +00000-0 +15174-2 0 00005
2 63554  43.0018  53.0256 0001979 253.0368 107.0283 15.70903028    01
Epoch (UTC): 25 May 2026 03:50:52
Eccentricity: 0.0001979
inclination: 43.0018°
perigee height: 355 km
apogee height: 358 km
right ascension of ascending node: 53.0256°
argument of perigee: 253.0368°
revolutions per day: 15.70903028
mean anomaly at epoch: 107.0283°

The dashed part of the orbit path shows where the satellite is in the earth's shadow,  

DLR